Terminal Aerodrome Forecast
Issued by NWS Pittsburgh, PA

Current Version | Previous Version | Graphics & Text | Print | Product List | Glossary On
Versions: 1 2 3 4 5 6 7 8 9 10 11 12 13 14 15 16 17 18 19 20 21 22 23 24 25 26 27 28 29 30
897
FTUS41 KPBZ 040545
TAFPIT
TAF
KPIT 040545Z 0406/0512 25004KT P6SM OVC035
     FM041200 16003KT P6SM OVC090
     FM050300 14004KT P6SM VCSH OVC050
     FM050500 17003KT 4SM -SHRA OVC015=

USA.gov is the U.S. government's official web portal to all federal, state and local government web resources and services.